Date String (YYYY-MM-DD hh:mm:ss) UTC,Instrument flags,Ambient pressure (hPa),Sample flow (lpm),Bypass flow (lpm),Sample temperature (°C),Ambient temperature (°C),ASC tube jacket temperature (°C),LED temperature (°C),Box temperature (°C),Sample RH (%),Span deviation,Mass concentration (μg/m³),Mass concentration (μg/m³),Mass concentration (μg/m³)
DateTimeUTC,F1_M11,P_M11,Q1_M11,Q2_M11,T1_M11,T2_M11,T3_M11,T4_M11,T5_M11,U1_M11,ZSPAN_M11,X0_M11,X2_M11,X1_M11
2022-06-11 00:00:00,,0824.3,5.00,0.00,28.8,27.3,00.0,37.6,30.6,23.1,0000.0,0017.72,0004.81,0003.30
2022-06-11 00:01:00,,0824.3,5.00,0.00,28.8,27.5,00.0,37.6,30.7,22.5,0000.0,0016.45,0004.85,0003.31
2022-06-11 00:02:00,,0824.3,4.99,0.00,28.8,27.7,00.0,37.6,30.8,23.5,0000.0,0017.23,0004.85,0003.30
2022-06-11 00:03:00,,0824.2,5.00,0.00,28.9,27.9,00.0,37.7,30.9,23.2,0000.0,0019.55,0004.83,0003.30
2022-06-11 00:04:00,,0824.2,5.01,0.00,28.9,28.0,00.0,37.7,30.9,24.3,0000.0,0020.34,0004.85,0003.31
2022-06-11 00:05:00,,0824.3,5.00,0.00,29.0,27.8,00.0,37.7,30.9,24.2,0000.0,0021.58,0004.84,0003.30
2022-06-11 00:06:00,,0824.3,4.99,0.00,28.9,27.1,00.0,37.6,30.7,23.8,0000.0,0023.06,0004.80,0003.30
2022-06-11 00:07:00,,0824.3,5.00,0.00,28.8,26.7,00.0,37.6,30.6,22.9,0000.0,0023.34,0004.79,0003.31
2022-06-11 00:08:00,,0824.3,5.01,0.00,28.8,26.7,00.0,37.6,30.5,23.3,0000.0,0022.29,0004.82,0003.30
2022-06-11 00:09:00,,0824.3,5.00,0.00,28.7,26.9,00.0,37.6,30.5,23.0,0000.0,0023.18,0004.87,0003.30
2022-06-11 00:10:00,,0824.2,4.98,0.00,28.7,27.0,00.0,37.6,30.5,23.3,0000.0,0022.74,0004.88,0003.31
2022-06-11 00:11:00,,0824.3,4.99,0.00,28.7,27.3,00.0,37.6,30.6,23.0,0000.0,0022.64,0004.93,0003.31
2022-06-11 00:12:00,,0824.2,5.00,0.00,28.8,27.5,00.0,37.6,30.7,22.9,0000.0,0022.97,0004.93,0003.30
2022-06-11 00:13:00,,0824.3,5.00,0.00,28.8,27.6,00.0,37.6,30.8,23.1,0000.0,0023.06,0004.92,0003.31
2022-06-11 00:14:00,,0824.4,5.00,0.00,28.9,27.8,00.0,37.6,30.8,23.1,0000.0,0020.79,0004.91,0003.31
2022-06-11 00:15:00,,0824.3,5.00,0.00,28.9,28.0,00.0,37.6,30.9,23.2,0000.0,0019.99,0004.93,0003.32
2022-06-11 00:16:00,,0824.2,5.01,0.00,29.0,28.1,00.0,37.7,31.0,23.2,0000.0,0018.91,0004.97,0003.33
2022-06-11 00:17:00,,0824.2,5.00,0.00,29.0,27.7,00.0,37.6,30.9,23.8,0000.0,0018.16,0004.96,0003.33
2022-06-11 00:18:00,,0824.3,5.01,0.00,28.9,26.9,00.0,37.6,30.7,24.0,0000.0,0018.04,0004.97,0003.33
2022-06-11 00:19:00,,0824.3,5.00,0.00,28.8,26.7,00.0,37.6,30.6,27.2,0000.0,0017.32,0004.95,0003.34
2022-06-11 00:20:00,,0824.3,5.00,0.00,28.8,26.7,00.0,37.6,30.5,30.3,0000.0,0016.20,0004.89,0003.36
2022-06-11 00:21:00,,0824.3,5.00,0.00,28.7,26.9,00.0,37.6,30.5,30.4,0000.0,0017.15,0004.93,0003.37
2022-06-11 00:22:00,,0824.3,5.00,0.00,28.7,27.1,00.0,37.6,30.6,28.7,0000.0,0017.76,0004.94,0003.39
2022-06-11 00:23:00,,0824.3,5.00,0.00,28.8,27.3,00.0,37.6,30.7,27.2,0000.0,0018.62,0004.96,0003.41
2022-06-11 00:24:00,,0824.3,4.99,0.00,28.8,27.5,00.0,37.6,30.7,26.4,0000.0,0018.84,0005.06,0003.43
2022-06-11 00:25:00,,0824.3,5.00,0.00,28.8,27.7,00.0,37.6,30.8,25.8,0000.0,0019.13,0005.16,0003.45
2022-06-11 00:26:00,,0824.3,5.01,0.00,28.9,27.9,00.0,37.6,30.9,25.6,0000.0,0019.17,0005.16,0003.46
2022-06-11 00:27:00,,0824.3,5.01,0.00,28.9,28.0,00.0,37.7,31.0,26.1,0000.0,0019.24,0005.15,0003.46
2022-06-11 00:28:00,,0824.3,5.00,0.00,29.0,27.8,00.0,37.6,30.9,26.8,0000.0,0018.79,0005.21,0003.48
2022-06-11 00:29:00,,0824.3,4.99,0.00,28.9,27.1,00.0,37.6,30.7,25.9,0000.0,0017.63,0005.18,0003.49
2022-06-11 00:30:00,,0824.3,5.01,0.00,28.8,26.7,00.0,37.6,30.6,26.3,0000.0,0017.48,0005.14,0003.49
2022-06-11 00:31:00,,0824.3,5.00,0.00,28.8,26.7,00.0,37.6,30.5,27.4,0000.0,0017.35,0005.19,0003.50
2022-06-11 00:32:00,,0824.3,5.00,0.00,28.7,26.8,00.0,37.6,30.5,26.7,0000.0,0016.33,0005.16,0003.49
2022-06-11 00:33:00,,0824.3,5.01,0.00,28.7,27.0,00.0,37.6,30.5,26.4,0000.0,0015.40,0005.08,0003.48
2022-06-11 00:34:00,,0824.3,5.01,0.00,28.7,27.2,00.0,37.6,30.6,26.5,0000.0,0014.51,0005.10,0003.48
2022-06-11 00:35:00,,0824.4,5.00,0.00,28.7,27.4,00.0,37.6,30.7,25.3,0000.0,0013.84,0005.05,0003.46
2022-06-11 00:36:00,,0824.3,5.00,0.00,28.8,27.6,00.0,37.6,30.7,25.0,0000.0,0014.77,0005.00,0003.45
2022-06-11 00:37:00,,0824.3,5.00,0.00,28.8,27.8,00.0,37.6,30.8,24.9,0000.0,0014.50,0004.99,0003.43
2022-06-11 00:38:00,,0824.3,5.00,0.00,28.9,28.0,00.0,37.6,30.9,27.8,0000.0,0014.54,0004.99,0003.43
2022-06-11 00:39:00,,0824.4,5.00,0.00,28.9,28.1,00.0,37.6,31.0,27.8,0000.0,0014.20,0005.00,0003.44
2022-06-11 00:40:00,,0824.4,5.00,0.00,28.9,27.7,00.0,37.6,30.9,26.6,0000.0,0015.01,0005.04,0003.44
2022-06-11 00:41:00,,0824.4,5.02,0.00,28.9,27.0,00.0,37.6,30.7,27.2,0000.0,0016.42,0005.08,0003.44
2022-06-11 00:42:00,,0824.3,5.00,0.00,28.8,26.8,00.0,37.6,30.6,26.9,0000.0,0017.42,0005.11,0003.44
2022-06-11 00:43:00,,0824.3,4.99,0.00,28.7,26.8,00.0,37.6,30.5,26.9,0000.0,0017.46,0005.12,0003.44
2022-06-11 00:44:00,,0824.4,5.00,0.00,28.7,26.9,00.0,37.6,30.5,26.2,0000.0,0017.55,0005.14,0003.44
2022-06-11 00:45:00,,0824.4,5.01,0.00,28.7,27.1,00.0,37.6,30.5,26.0,0000.0,0017.44,0005.11,0003.44
2022-06-11 00:46:00,,0824.4,4.99,0.00,28.7,27.3,00.0,37.6,30.6,25.1,0000.0,0017.81,0005.16,0003.44
2022-06-11 00:47:00,,0824.4,5.00,0.00,28.8,27.5,00.0,37.6,30.7,24.6,0000.0,0016.56,0005.19,0003.45
2022-06-11 00:48:00,,0824.4,5.00,0.00,28.8,27.7,00.0,37.6,30.8,25.1,0000.0,0016.80,0005.18,0003.45
2022-06-11 00:49:00,,0824.5,5.01,0.00,28.9,27.8,00.0,37.6,30.8,25.6,0000.0,0016.75,0005.18,0003.44
2022-06-11 00:50:00,,0824.5,4.99,0.00,28.9,28.0,00.0,37.6,30.9,26.4,0000.0,0016.68,0005.18,0003.44
2022-06-11 00:51:00,,0824.5,5.00,0.00,29.0,28.0,00.0,37.6,30.9,26.9,0000.0,0016.22,0005.19,0003.43
2022-06-11 00:52:00,,0824.4,5.01,0.00,28.9,27.4,00.0,37.6,30.8,27.2,0000.0,0015.75,0005.22,0003.44
2022-06-11 00:53:00,,0824.4,5.00,0.00,28.9,26.9,00.0,37.6,30.7,27.5,0000.0,0015.58,0005.16,0003.43
2022-06-11 00:54:00,,0824.4,5.00,0.00,28.8,26.7,00.0,37.6,30.6,26.0,0000.0,0016.34,0005.16,0003.41
2022-06-11 00:55:00,,0824.4,5.00,0.00,28.7,26.8,00.0,37.6,30.5,25.7,0000.0,0017.30,0005.21,0003.41
2022-06-11 00:56:00,,0824.4,4.99,0.00,28.7,26.9,00.0,37.6,30.5,27.5,0000.0,0018.65,0005.25,0003.41
2022-06-11 00:57:00,,0824.4,5.00,0.00,28.7,27.1,00.0,37.6,30.5,29.0,0000.0,0018.34,0005.17,0003.40
2022-06-11 00:58:00,,0824.4,5.00,0.00,28.7,27.3,00.0,37.6,30.6,29.1,0000.0,0017.97,0005.10,0003.41
2022-06-11 00:59:00,,0824.4,4.99,0.00,28.7,27.5,00.0,37.6,30.7,27.1,0000.0,0018.66,0005.09,0003.41
